ROMMA est une association bénévole à but non lucratif. Votre soutien est indispensable : ADHERER à ROMMA ou FAIRE un DON

Arâches-la-Frasse - (74, Haute-Savoie)

Domaine du Grand Massif (1120 m)   Longitude: 06° 38' 33" E   Latitude: 46° 02' 45" N Station partenaire n°39
 

Détail journalier du     <<     >>

Température Humidité Vent Dir Rafale Dir. rafale Ensol.
Heure (°C) (%) (km/h) (km/h) (min)
01:00 8.0754NE10E0
02:00 8.1766ESE13ESE0
03:00 8.1755E13ESE0
04:00 8.1772ENE8E0
05:00 8.0793E11ESE0
06:00 7.9783ESE10E0
07:00 7.5785E11ESE0
08:00 7.4775ENE8ENE0
09:00 8.0754E13ESE0
10:00 8.9754ENE10E0
11:00 11.6662NNE6ENE60
12:00 12.6594SSO13SO60
13:00 14.0583SO13SO60
14:00 13.6682SO8SSO0
15:00 13.2641NNO8NO0
16:00 12.1712N10N0
17:00 11.3792NE10NE0
18:00 10.8842N10NNE0
19:00 9.9883E10E0
20:00 9.9883S16SSE0
21:00 9.7912S11SO0
22:00 9.3932N8NE0
23:00 9.3942NE8NNO0
minuit 9.3953NNE11NNE0

Graphique du 17-10-2019

 

Serveur OMMA